Flag for U.S.A. Weather past 2 weeks in Montpelier, Vermont, U.S.A.

Now
40 °F

Low clouds.


Feels Like: 35 °F
Forecast: 42 / 49 °F
Wind: 7 mph from Northwest

Location: Knapp State Airport

Current Time: Oct 24, 2014 at 10:00:15 AM

Latest Report: Oct 24, 2014 at 8:51 AM


Visibility: 10 mi

Pressure: 29.86 "Hg

Humidity: 97%

Dew point: 39 °F

Location of MontpelierLocation

Historic Weather in Montpelier — Graph

°F

Montpelier temperature yesterday

Maximum temperature yesterday: 46 °F (at 12:51 AM)
Minimum temperature yesterday: 42 °F (at 6:51 AM)
Average temperature yesterday: 44 °F

Past Weeks' High & Low Weather Summary

 TemperatureHumidityPressure
High75 °F (Oct 14, 2:51 PM)100% (Oct 11, 6:51 AM)30.37 "Hg (Oct 11, 6:51 AM)
Low28 °F (Oct 13, 4:51 AM)37% (Oct 12, 4:51 PM)29.54 "Hg (Oct 18, 1:51 PM)
Average49 °F81%30.00 "Hg
* Reported Oct 9 9:03 AM — Oct 24 8:51 AM, Montpelier, Weather by CustomWeather, © 2014

Note: Actual official high and low records may vary slightly from our data, if they occured in-between our weather recording intervals... More about our weather records

Advertising

Montpelier weather history for previous 24 hours

 ConditionsComfort  
Time TempWeatherWind HumidityBarometerVisibility
8:51 AM
Oct 24
40 °FLow clouds.7 mph97%29.86 "Hg10 mi
7:51 AM40 °FLow clouds.8 mph93%29.85 "Hg10 mi
6:51 AM40 °FLow clouds.7 mph97%29.84 "Hg10 mi
5:51 AM40 °FLow clouds.8 mph100%29.84 "Hg10 mi
4:51 AM41 °FFog.7 mph96%29.83 "Hg4 mi
3:51 AM41 °FLight rain. Fog.8 mph100%29.84 "Hg5 mi
2:51 AM42 °FLight rain. Low clouds.6 mph96%29.83 "Hg7 mi
1:51 AM43 °FLight rain. Low clouds.3 mph97%29.85 "Hg7 mi
12:51 AM43 °FLight rain. Low clouds.6 mph97%29.85 "Hg10 mi
11:51 PM
Oct 23
43 °FLow clouds.8 mph97%29.88 "Hg10 mi
10:51 PM44 °FLow clouds.8 mph93%29.89 "Hg10 mi
9:59 PM44 °FMostly cloudy.6 mph96%29.88 "Hg10 mi
8:51 PM44 °FLight rain. Low clouds.7 mph96%29.90 "Hg10 mi
7:51 PM45 °FOvercast.8 mph93%29.90 "Hg10 mi
6:51 PM45 °FLow clouds.3 mph93%29.92 "Hg10 mi
5:51 PM44 °FLight rain. Low clouds.8 mph96%29.90 "Hg10 mi
4:51 PM45 °FLight rain. Low clouds.8 mph93%29.91 "Hg10 mi
3:51 PM44 °FOvercast.8 mph93%29.91 "Hg10 mi
2:51 PM43 °FLight rain. Low clouds.12 mph97%29.93 "Hg10 mi
1:51 PM43 °FHeavy rain. Fog.9 mph97%29.94 "Hg2 mi
12:51 PM43 °FHeavy rain. Fog.9 mph93%29.94 "Hg2 mi
11:51 AM43 °FOvercast.7 mph93%29.96 "Hg10 mi
10:51 AM43 °FLight rain. Overcast.10 mph93%29.95 "Hg8 mi
Weather by CustomWeather, © 2014

See weather overviewHow to use our weather pages